[Iaude] MPEC F104: 2024 FC3 [a=1.25,e=0.70,i=23.6,H=20.3]
    mpec at cfa.harvard.edu 
    mpec at cfa.harvard.edu
       
    Fri Mar 29 19:12:35 EDT 2024
    
    
  
M.P.E.C. 2024-F104                               Issued 2024 March 29, 23:11 UT
     The Minor Planet Electronic Circulars contain information on unusual
         minor planets, routine data on comets and natural satellites,
         and occasional editorial announcements.  They are published
    on behalf of Division F of the International Astronomical Union by the
          Minor Planet Center, Smithsonian Astrophysical Observatory,
                          Cambridge, MA 02138, U.S.A.
			  
             Prepared using the Tamkin Foundation Computer Network
                              MPC at CFA.HARVARD.EDU
            URL https://www.minorplanetcenter.net/    ISSN 1523-6714
                                    2024 FC3                                    
Observations:
     K24F03C* C2024 03 17.42637011 32 00.399+00 31 57.04         21.58wXEF104F51
     K24F03C  C2024 03 17.43854311 31 58.043+00 32 00.72         20.84wXEF104F51
     K24F03C  C2024 03 17.45068911 31 55.711+00 32 04.37         21.41wXEF104F51
     K24F03C  C2024 03 17.46279911 31 53.375+00 32 08.10         21.07wXEF104F51
     K24F03C  C2024 03 17.53181011 31 40.077+00 32 28.61         21.02GVEF104F51
     K24F03C  C2024 03 17.53262811 31 39.916+00 32 28.89         21.11GVEF104F51
     K24F03C 1C2024 03 17.99604 11 30 12.49 +00 34 43.8          21.6 VXEF104033
     K24F03C 1C2024 03 17.99812 11 30 12.07 +00 34 45.0          21.8 VXEF104033
     K24F03C 1C2024 03 18.00020 11 30 11.67 +00 34 45.6          21.5 VXEF104033
     K24F03C |C2024 03 19.19836011 26 22.860+00 41 03.20         20.9 GVEF104807
     K24F03C |C2024 03 19.20387011 26 21.790+00 41 04.70         20.9 GVEF104807
     K24F03C |C2024 03 19.20901011 26 20.770+00 41 06.40         20.9 GVEF104807
     K24F03C KC2024 03 19.30813111 26 01.770+00 41 24.30               VEF104I52
     K24F03C KC2024 03 19.31155111 26 01.080+00 41 25.80         21.68GVEF104I52
     K24F03C 1C2024 03 19.32995911 25 57.981+00 41 33.98         21.09GVEF104T12
     K24F03C 1C2024 03 19.34025911 25 55.973+00 41 37.17         21.62GVEF104T12
     K24F03C |C2024 03 28.05650010 57 24.820+01 26 25.90         21.3 GVEF104807
     K24F03C |C2024 03 28.06523010 57 23.090+01 26 28.30         21.1 GVEF104807
     K24F03C |C2024 03 28.07403010 57 21.350+01 26 30.60         21.3 GVEF104807
Observer details:
033 Karl Schwarzschild Observatory, Tautenburg.  Observers S. Melnikov, C.
    Hogner, F. Ludwig, M. Hartmann, B. Stecklum.  Measurer B. Stecklum.
    1.34-m f/3 Schmidt + CCD.
807 Cerro Tololo Observatory, La Serena.  Observers T. Linder, R. Holmes.
    0.61-m f/6.8 Ritchey-Chretien + CCD.
F51 Pan-STARRS 1, Haleakala.  Observers J. Herman, T. Lowe, P. Minguez, A.
    Schultz, I. Smith.  Measurers K. Chambers, T. de Boer, J. Fairlamb, H.
    Gao, M. Huber, C.-C. Lin, E. Magnier, Y. Ramanjooloo, R. Wainscoat, R.
    Weryk.  1.8-m Ritchey-Chretien + CCD.
I52 Steward Observatory, Mt. Lemmon Station.  Observer R. A. Kowalski.
    Measurers T. Beuden, V. F. Carvajal, D. Fay, J. B. Fazekas, D. C. Fuls, A.
    R. Gibbs, A. D. Grauer, H. Groeller, J. K. Hogan, R. A. Kowalski, S. M.
    Larson, G. J. Leonard, D. Rankin, R. L. Seaman, F. C. Shelly, K. W.
    Wierzchos.  1.0-m prime focus + CCD.
T12 University of Hawaii 88-inch telescope, Maunakea.  Observer J. Fairlamb.
    Measurers R. Weryk, J. Fairlamb, Y. Ramanjooloo, R. Wainscoat.  2.24-m
    f/10.1 reflector + CCD.
Orbital elements:
2024 FC3                                                 Earth MOID = 0.2434 AU
Epoch 2024 Mar. 31.0 TT = JDT 2460400.5                 Veres                   
M 273.70750              (2000.0)            P               Q                  
n   0.70415317     Peri.  338.89679     +0.88628866     +0.46060996             
a   1.2512899      Node   353.06818     -0.34655362     +0.59042542             
e   0.6953303      Incl.   23.58014     -0.30723443     +0.66274903             
P   1.40           H   20.36          G   0.15           U   9                  
Residuals in seconds of arc
240317 F51  0.0   0.1+    240317 033  0.2-  1.0+    240319 T12  0.2-  0.1+
240317 F51  0.1-  0.1+    240318 033  0.2-  0.9+    240319 T12  0.0   0.1+
240317 F51  0.1+  0.2+    240319 807  0.0   0.1+    240328 807  0.3-  0.3+
240317 F51  0.1+  0.3+    240319 807  0.2+  0.1-    240328 807  0.0   0.1+
240317 F51  0.1+  0.1+    240319 807  0.0   0.1+    240328 807  0.3+  0.2-
240317 F51  0.1+  0.1+    240319 I52  0.1+  0.7-
240317 033  0.1+  0.4+    240319 I52  0.1-  0.2-
Ephemeris:
2024 FC3                 a,e,i = 1.25, 0.70, 24                  q = 0.3812
Date    TT    R. A. (2000) Decl.     Delta      r    Elong.  Phase     V
2024 02 28    12 20 23.7 -00 37 00   0.9414  1.8807   153.6    13.5    22.4
...
2024 03 14    11 42 32.2 +00 15 25   0.8070  1.8007   177.2     1.5    21.4
...
2024 03 22    11 17 18.9 +00 55 22   0.7661  1.7527   167.8     6.9    21.5
...
2024 03 28    10 57 35.8 +01 26 02   0.7501  1.7142   157.1    13.1    21.7
2024 03 29    10 54 19.6 +01 30 58   0.7486  1.7075   155.3    14.1    21.7
2024 03 30    10 51 04.4 +01 35 49   0.7475  1.7008   153.6    15.2    21.7
...
2024 04 05    10 32 11.0 +02 02 18   0.7469  1.6593   143.1    21.2    21.9
...
2024 04 13    10 09 43.7 +02 27 56   0.7608  1.6002   129.8    28.8    22.1
...
2024 04 28    09 39 15.9 +02 37 55   0.8137  1.4772   108.0    40.4    22.4
M. P. C. Staff               (C) Copyright 2024 MPC           M.P.E.C. 2024-F104
    
    
More information about the Iaude
mailing list